This is the latest recevied weather packets stored in our database for station/object WX4LTG. If no packets are shown the sender has not sent any weather packets the latest 10 day(s).
| Time | Temp. | Humidity | Pressure | Rain* | Wind** | Luminosity | Snow |
|---|---|---|---|---|---|---|---|
| 1777340186 | 25° C | 20% | 1010.7 hPa | 0 mm | - | 29 W/m² | - |
| 1777339883 | 25° C | 20% | 1010.8 hPa | 0 mm | - | 36 W/m² | - |
| 1777339581 | 25.56° C | 20% | 1011.1 hPa | 0 mm | - | 44 W/m² | - |
| 1777339278 | 25.56° C | 20% | 1011.2 hPa | 0 mm | - | 51 W/m² | - |
| 1777338976 | 25.56° C | 20% | 1011 hPa | 0 mm | - | 60 W/m² | - |
| 1777338673 | 25.56° C | 20% | 1010.8 hPa | 0 mm | - | 70 W/m² | - |
| 1777338371 | 25.56° C | 19% | 1010.8 hPa | 0 mm | - | 81 W/m² | - |
| 1777338067 | 26.11° C | 19% | 1010.8 hPa | 0 mm | - | 91 W/m² | - |
| 1777337763 | 25.56° C | 19% | 1010.7 hPa | 0 mm | - | 104 W/m² | - |
| 1777337461 | 25.56° C | 19% | 1010.8 hPa | 0 mm | - | 114 W/m² | - |
| 1777337157 | 26.11° C | 19% | 1010.6 hPa | 0 mm | - | 125 W/m² | - |
| 1777336855 | 25.56° C | 19% | 1010.8 hPa | 0 mm | - | 139 W/m² | - |
| 1777336554 | 26.11° C | 19% | 1010.7 hPa | 0 mm | - | 152 W/m² | - |
| 1777336251 | 25.56° C | 19% | 1010.4 hPa | 0 mm | - | 165 W/m² | - |
| 1777335948 | 26.11° C | 19% | 1010.5 hPa | 0 mm | - | 179 W/m² | - |
| 1777335645 | 26.11° C | 19% | 1010.5 hPa | 0 mm | - | 193 W/m² | - |
| 1777335342 | 26.67° C | 19% | 1011 hPa | 0 mm | - | 209 W/m² | - |
| 1777335039 | 26.11° C | 18% | 1010.7 hPa | 0 mm | - | 224 W/m² | - |
| 1777334737 | 26.11° C | 19% | 1010.7 hPa | 0 mm | - | 237 W/m² | - |
| 1777334434 | 26.11° C | 18% | 1010.8 hPa | 0 mm | - | 253 W/m² | - |
| 1777334131 | 26.67° C | 18% | 1010.6 hPa | 0 mm | - | 268 W/m² | - |
| 1777333830 | 26.67° C | 18% | 1010.7 hPa | 0 mm | - | 282 W/m² | - |
| 1777333527 | 26.67° C | 18% | 1010.8 hPa | 0 mm | - | 295 W/m² | - |
| 1777333224 | 26.67° C | 17% | 1010.8 hPa | 0 mm | - | 312 W/m² | - |
| 1777332922 | 26.67° C | 18% | 1010.8 hPa | 0 mm | - | 326 W/m² | - |
* Rain latest hour (hover to see other rain measurements)
** Current wind speed in m/s (hover to see current wind gust speed)